| time (UTC) | temp C | wind direction | speed KPH | gust KPH | rain 1hr cm | rain 24hr cm | rain mn cm | humidity % | barometer mb |
| 20260509234700 | 23 | 151 | 8.0 | 11.3 | 0.00 | 0.00 | 0.48 | 83 | 1010.6 |
| 20260509234200 | 23 | 153 | 12.9 | 20.9 | 0.00 | 0.00 | 0.48 | 82 | 1010.4 |
| 20260509233701 | 23 | 107 | 11.3 | 19.3 | 0.00 | 0.00 | 0.48 | 82 | 1010.6 |
| 20260509233201 | 23 | 106 | 12.9 | 19.3 | 0.00 | 0.00 | 0.48 | 82 | 1010.5 |
| 20260509232700 | 24 | 134 | 16.1 | 22.5 | 0.00 | 0.00 | 0.48 | 81 | 1010.5 |
| 20260509232201 | 24 | 118 | 12.9 | 22.5 | 0.00 | 0.00 | 0.48 | 81 | 1010.4 |
| 20260509231701 | 25 | 142 | 9.7 | 14.5 | 0.00 | 0.00 | 0.48 | 81 | 1010.2 |
| 20260509231201 | 26 | 100 | 12.9 | 19.3 | 0.00 | 0.00 | 0.48 | 80 | 1010.2 |
| 20260509230701 | 26 | 109 | 12.9 | 20.9 | 0.00 | 0.00 | 0.48 | 80 | 1010.0 |
| 20260509230201 | 26 | 77 | 11.3 | 12.9 | 0.00 | 0.00 | 0.48 | 78 | 1009.9 |
| 20260509225701 | 26 | 79 | 8.0 | 9.7 | 0.00 | 0.00 | 0.48 | 78 | 1010.0 |
| 20260509225200 | 26 | 72 | 9.7 | 11.3 | 0.00 | 0.00 | 0.48 | 78 | 1010.0 |
| 20260509224700 | 27 | 99 | 6.4 | 8.0 | 0.00 | 0.00 | 0.48 | 77 | 1009.9 |
| 20260509224200 | 27 | 86 | 4.8 | 6.4 | 0.00 | 0.00 | 0.48 | 76 | 1010.0 |
| 20260509223700 | 27 | 72 | 6.4 | 8.0 | 0.00 | 0.00 | 0.48 | 76 | 1009.8 |
| 20260509223201 | 27 | 75 | 4.8 | 9.7 | 0.00 | 0.00 | 0.48 | 77 | 1009.7 |
| 20260509222701 | 27 | 60 | 4.8 | 6.4 | 0.00 | 0.00 | 0.48 | 78 | 1009.6 |
| 20260509222204 | 27 | 10 | 0.0 | 3.2 | 0.00 | 0.00 | 0.48 | 78 | 1009.5 |
| 20260509221700 | 27 | 79 | 3.2 | 6.4 | 0.00 | 0.00 | 0.48 | 78 | 1009.3 |
| 20260509221201 | 27 | 47 | 3.2 | 6.4 | 0.00 | 0.00 | 0.48 | 78 | 1009.3 |
| 20260509220701 | 27 | 70 | 3.2 | 4.8 | 0.00 | 0.00 | 0.48 | 78 | 1009.3 |
| 20260509220202 | 27 | 54 | 4.8 | 8.0 | 0.00 | 0.00 | 0.48 | 75 | 1009.3 |
| 20260509215701 | 28 | 59 | 0.0 | 3.2 | 0.00 | 0.00 | 0.48 | 73 | 1009.3 |
| 20260509215200 | 27 | 325 | 0.0 | 3.2 | 0.00 | 0.00 | 0.48 | 75 | 1009.2 |
| 20260509214701 | 27 | 92 | 6.4 | 8.0 | 0.00 | 0.00 | 0.48 | 76 | 1009.3 |
| 20260509214201 | 27 | 101 | 3.2 | 4.8 | 0.00 | 0.00 | 0.48 | 74 | 1009.3 |
| 20260509213701 | 27 | 111 | 3.2 | 6.4 | 0.00 | 0.00 | 0.48 | 78 | 1009.4 |
| 20260509213200 | 27 | 90 | 4.8 | 6.4 | 0.00 | 0.00 | 0.48 | 77 | 1009.4 |
| 20260509212701 | 27 | 50 | 1.6 | 6.4 | 0.00 | 0.00 | 0.48 | 77 | 1009.5 |
| 20260509212200 | 27 | 20 | 1.6 | 4.8 | 0.00 | 0.00 | 0.48 | 77 | 1009.6 |
| 20260509211700 | 27 | 71 | 3.2 | 6.4 | 0.00 | 0.00 | 0.48 | 77 | 1009.6 |
| 20260509211201 | 27 | 37 | 3.2 | 4.8 | 0.00 | 0.00 | 0.48 | 79 | 1009.7 |
| 20260509210701 | 27 | 12 | 3.2 | 4.8 | 0.00 | 0.00 | 0.48 | 79 | 1009.8 |
| 20260509210201 | 27 | 73 | 3.2 | 4.8 | 0.00 | 0.00 | 0.48 | 78 | 1009.9 |
| 20260509205701 | 27 | 53 | 3.2 | 6.4 | 0.00 | 0.00 | 0.48 | 78 | 1009.9 |
| 20260509205202 | 27 | 67 | 8.0 | 11.3 | 0.00 | 0.00 | 0.48 | 78 | 1010.0 |
| 20260509204703 | 27 | 21 | 3.2 | 8.0 | 0.00 | 0.00 | 0.48 | 78 | 1010.1 |
| 20260509204200 | 26 | 347 | 0.0 | 1.6 | 0.00 | 0.00 | 0.48 | 79 | 1010.1 |
| 20260509203700 | 26 | 90 | 4.8 | 6.4 | 0.00 | 0.00 | 0.48 | 80 | 1010.2 |
| 20260509203200 | 27 | 69 | 6.4 | 9.7 | 0.00 | 0.00 | 0.48 | 79 | 1010.3 |
| 20260509202700 | 27 | 110 | 6.4 | 6.4 | 0.00 | 0.00 | 0.48 | 78 | 1010.3 |
| 20260509202200 | 27 | 23 | 0.0 | 1.6 | 0.00 | 0.00 | 0.48 | 79 | 1010.3 |
| 20260509201700 | 26 | 151 | 1.6 | 3.2 | 0.00 | 0.00 | 0.48 | 80 | 1010.3 |
| 20260509201201 | 26 | 308 | 0.0 | 3.2 | 0.00 | 0.00 | 0.48 | 81 | 1010.4 |
| 20260509200702 | 26 | 116 | 3.2 | 6.4 | 0.00 | 0.00 | 0.48 | 82 | 1010.4 |
| 20260509200202 | 26 | 132 | 0.0 | 1.6 | 0.00 | 0.00 | 0.48 | 82 | 1010.5 |
| 20260509195700 | 26 | 149 | 3.2 | 3.2 | 0.00 | 0.00 | 0.48 | 81 | 1010.4 |
| 20260509195201 | 25 | 206 | 1.6 | 4.8 | 0.00 | 0.00 | 0.48 | 84 | 1010.4 |
| 20260509194702 | 25 | 123 | 1.6 | 3.2 | 0.00 | 0.00 | 0.48 | 84 | 1010.4 |
| 20260509194200 | 25 | 165 | 6.4 | 8.0 | 0.00 | 0.00 | 0.48 | 84 | 1010.4 |
| 20260509193700 | 25 | 157 | 4.8 | 6.4 | 0.00 | 0.00 | 0.48 | 85 | 1010.5 |
| 20260509193201 | 25 | 152 | 6.4 | 8.0 | 0.00 | 0.00 | 0.48 | 85 | 1010.5 |
| 20260509192701 | 25 | 102 | 3.2 | 6.4 | 0.00 | 0.00 | 0.48 | 84 | 1010.6 |
| 20260509192201 | 25 | 255 | 1.6 | 3.2 | 0.00 | 0.00 | 0.48 | 84 | 1010.6 |
| 20260509191700 | 25 | 225 | 3.2 | 4.8 | 0.00 | 0.00 | 0.48 | 84 | 1010.7 |
| 20260509191204 | 25 | 170 | 1.6 | 4.8 | 0.00 | 0.00 | 0.48 | 85 | 1010.8 |
| 20260509190702 | 25 | 123 | 1.6 | 3.2 | 0.00 | 0.00 | 0.48 | 86 | 1010.8 |
| 20260509190200 | 25 | 95 | 6.4 | 8.0 | 0.00 | 0.00 | 0.48 | 86 | 1010.8 |
| 20260509185700 | 25 | 144 | 4.8 | 12.9 | 0.00 | 0.00 | 0.48 | 85 | 1010.9 |
| 20260509185201 | 25 | 140 | 3.2 | 4.8 | 0.00 | 0.00 | 0.48 | 85 | 1011.0 |
| 20260509184702 | 25 | 213 | 3.2 | 6.4 | 0.00 | 0.00 | 0.48 | 85 | 1011.0 |
| 20260509184201 | 25 | 160 | 3.2 | 4.8 | 0.00 | 0.00 | 0.48 | 85 | 1011.0 |
| 20260509183701 | 25 | 146 | 4.8 | 6.4 | 0.00 | 0.00 | 0.48 | 86 | 1011.1 |
| 20260509183200 | 24 | 169 | 4.8 | 6.4 | 0.00 | 0.00 | 0.48 | 86 | 1011.0 |
| 20260509182702 | 24 | 188 | 0.0 | 1.6 | 0.00 | 0.00 | 0.48 | 87 | 1011.1 |
| 20260509182202 | 23 | 66 | 3.2 | 6.4 | 0.00 | 0.00 | 0.48 | 88 | 1011.2 |
| 20260509181702 | 23 | 60 | 0.0 | 0.0 | 0.00 | 0.00 | 0.48 | 89 | 1011.3 |
| 20260509181202 | 23 | 0 | 0.0 | 0.0 | 0.00 | 0.00 | 0.48 | 89 | 1011.4 |
| 20260509180702 | 23 | 356 | 0.0 | 1.6 | 0.00 | 0.00 | 0.48 | 89 | 1011.4 |
| 20260509180202 | 23 | 298 | 1.6 | 3.2 | 0.00 | 0.00 | 0.48 | 89 | 1011.4 |
| 20260509175703 | 23 | 318 | 0.0 | 0.0 | 0.00 | 0.00 | 0.48 | 88 | 1011.5 |
| 20260509175200 | 23 | 0 | 0.0 | 0.0 | 0.00 | 0.00 | 0.48 | 89 | 1011.6 |
| 20260509174701 | 23 | 0 | 0.0 | 0.0 | 0.00 | 0.00 | 0.48 | 88 | 1011.7 |
| 20260509174200 | 23 | 345 | 1.6 | 3.2 | 0.00 | 0.00 | 0.48 | 88 | 1011.7 |
| 20260509173701 | 23 | 315 | 0.0 | 0.0 | 0.00 | 0.00 | 0.48 | 88 | 1011.8 |
| 20260509173201 | 23 | 0 | 0.0 | 0.0 | 0.00 | 0.00 | 0.48 | 89 | 1011.9 |
| 20260509172705 | 23 | 153 | 0.0 | 0.0 | 0.00 | 0.00 | 0.48 | 90 | 1011.8 |
| 20260509172200 | 23 | 210 | 1.6 | 3.2 | 0.00 | 0.00 | 0.48 | 91 | 1011.8 |
| 20260509171701 | 23 | 0 | 0.0 | 0.0 | 0.00 | 0.00 | 0.48 | 93 | 1011.9 |
| 20260509171202 | 22 | 171 | 3.2 | 3.2 | 0.00 | 0.00 | 0.48 | 94 | 1011.8 |
| 20260509170700 | 22 | 132 | 0.0 | 0.0 | 0.00 | 0.00 | 0.48 | 95 | 1011.8 |
| 20260509170202 | 22 | 104 | 3.2 | 4.8 | 0.00 | 0.00 | 0.48 | 94 | 1012.0 |
| 20260509165700 | 22 | 70 | 3.2 | 4.8 | 0.00 | 0.00 | 0.48 | 95 | 1012.0 |
| 20260509165210 | 22 | 141 | 3.2 | 3.2 | 0.00 | 0.00 | 0.48 | 95 | 1012.0 |
| 20260509164700 | 22 | 134 | 3.2 | 4.8 | 0.00 | 0.00 | 0.48 | 96 | 1012.0 |
| 20260509164201 | 21 | 133 | 4.8 | 6.4 | 0.00 | 0.00 | 0.48 | 95 | 1012.1 |
| 20260509163701 | 21 | 131 | 4.8 | 6.4 | 0.00 | 0.00 | 0.48 | 95 | 1012.0 |
| 20260509163202 | 21 | 132 | 3.2 | 3.2 | 0.00 | 0.00 | 0.48 | 96 | 1011.8 |
| 20260509162701 | 21 | 135 | 4.8 | 6.4 | 0.00 | 0.00 | 0.48 | 96 | 1011.9 |
| 20260509162200 | 21 | 133 | 6.4 | 8.0 | 0.00 | 0.00 | 0.48 | 96 | 1011.8 |
| 20260509161701 | 21 | 133 | 6.4 | 6.4 | 0.00 | 0.00 | 0.48 | 96 | 1011.8 |
| 20260509161200 | 21 | 134 | 6.4 | 6.4 | 0.00 | 0.00 | 0.48 | 96 | 1011.8 |
| 20260509160701 | 21 | 133 | 6.4 | 6.4 | 0.00 | 0.00 | 0.48 | 96 | 1011.8 |
| 20260509160203 | 21 | 132 | 4.8 | 6.4 | 0.00 | 0.00 | 0.48 | 96 | 1011.8 |
| 20260509155703 | 21 | 132 | 4.8 | 6.4 | 0.00 | 0.00 | 0.48 | 96 | 1011.7 |
| 20260509155201 | 21 | 131 | 4.8 | 4.8 | 0.00 | 0.00 | 0.48 | 96 | 1011.6 |
| 20260509154700 | 21 | 132 | 4.8 | 4.8 | 0.00 | 0.00 | 0.48 | 96 | 1011.5 |
| 20260509154200 | 20 | 133 | 3.2 | 3.2 | 0.00 | 0.00 | 0.48 | 96 | 1011.6 |
| 20260509153700 | 20 | 138 | 3.2 | 3.2 | 0.00 | 0.00 | 0.48 | 96 | 1011.5 |
| 20260509153202 | 20 | 138 | 3.2 | 4.8 | 0.00 | 0.00 | 0.48 | 96 | 1011.4 |
| 20260509152702 | 20 | 127 | 3.2 | 4.8 | 0.00 | 0.00 | 0.48 | 96 | 1011.5 |
| 20260509152202 | 20 | 133 | 3.2 | 3.2 | 0.00 | 0.00 | 0.48 | 96 | 1011.6 |
| 20260509151700 | 20 | 138 | 3.2 | 3.2 | 0.00 | 0.00 | 0.48 | 96 | 1011.5 |
| 20260509151201 | 20 | 110 | 3.2 | 3.2 | 0.00 | 0.00 | 0.48 | 96 | 1011.4 |
| 20260509150702 | 20 | 99 | 1.6 | 3.2 | 0.00 | 0.00 | 0.48 | 96 | 1011.3 |
| 20260509150203 | 20 | 85 | 4.8 | 6.4 | 0.00 | 0.00 | 0.48 | 96 | 1011.2 |
| 20260509145701 | 20 | 83 | 3.2 | 4.8 | 0.00 | 0.00 | 0.48 | 96 | 1011.2 |
| 20260509145202 | 20 | 97 | 4.8 | 6.4 | 0.00 | 0.00 | 0.48 | 96 | 1011.2 |
| 20260509144703 | 20 | 319 | 1.6 | 3.2 | 0.00 | 0.00 | 0.48 | 96 | 1011.3 |
| 20260509144202 | 20 | 133 | 3.2 | 3.2 | 0.00 | 0.00 | 0.48 | 96 | 1011.3 |
| 20260509143700 | 20 | 319 | 3.2 | 3.2 | 0.00 | 0.00 | 0.48 | 96 | 1011.4 |
| 20260509143200 | 20 | 134 | 3.2 | 3.2 | 0.00 | 0.00 | 0.48 | 96 | 1011.4 |
| 20260509142705 | 20 | 124 | 3.2 | 3.2 | 0.00 | 0.00 | 0.48 | 96 | 1011.7 |
| 20260509142201 | 20 | 132 | 3.2 | 4.8 | 0.00 | 0.00 | 0.48 | 96 | 1011.7 |
| 20260509141700 | 20 | 132 | 6.4 | 6.4 | 0.00 | 0.00 | 0.48 | 96 | 1011.8 |
| 20260509141202 | 20 | 138 | 6.4 | 6.4 | 0.00 | 0.00 | 0.48 | 96 | 1011.7 |
| 20260509140703 | 20 | 126 | 4.8 | 4.8 | 0.00 | 0.00 | 0.48 | 96 | 1011.7 |
| 20260509140201 | 20 | 154 | 4.8 | 6.4 | 0.00 | 0.00 | 0.48 | 96 | 1011.7 |
| 20260509135700 | 20 | 162 | 4.8 | 4.8 | 0.00 | 0.00 | 0.48 | 96 | 1011.7 |
| 20260509135201 | 20 | 117 | 3.2 | 6.4 | 0.00 | 0.00 | 0.48 | 96 | 1011.6 |
| 20260509134701 | 20 | 139 | 4.8 | 6.4 | 0.00 | 0.00 | 0.48 | 96 | 1011.5 |
| 20260509134201 | 20 | 143 | 4.8 | 8.0 | 0.00 | 0.00 | 0.48 | 96 | 1011.6 |
| 20260509133702 | 20 | 131 | 3.2 | 4.8 | 0.00 | 0.00 | 0.48 | 96 | 1011.7 |
| 20260509133202 | 20 | 140 | 6.4 | 9.7 | 0.00 | 0.00 | 0.48 | 96 | 1011.6 |
| 20260509132700 | 20 | 158 | 6.4 | 9.7 | 0.00 | 0.00 | 0.48 | 96 | 1011.6 |
| 20260509132201 | 20 | 179 | 8.0 | 12.9 | 0.00 | 0.00 | 0.48 | 96 | 1011.7 |
| 20260509131700 | 20 | 162 | 8.0 | 12.9 | 0.00 | 0.00 | 0.48 | 95 | 1011.7 |
| 20260509131201 | 20 | 119 | 4.8 | 4.8 | 0.00 | 0.00 | 0.48 | 96 | 1011.8 |
| 20260509130703 | 20 | 124 | 3.2 | 4.8 | 0.00 | 0.00 | 0.48 | 95 | 1011.7 |
| 20260509130202 | 20 | 120 | 3.2 | 3.2 | 0.00 | 0.00 | 0.48 | 95 | 1011.7 |
| 20260509125700 | 20 | 99 | 3.2 | 6.4 | 0.00 | 0.00 | 0.48 | 96 | 1011.5 |
| 20260509125202 | 20 | 142 | 6.4 | 12.9 | 0.00 | 0.00 | 0.48 | 95 | 1011.4 |
| 20260509124703 | 20 | 24 | 3.2 | 4.8 | 0.00 | 0.00 | 0.48 | 95 | 1011.3 |
| 20260509124201 | 19 | 102 | 6.4 | 8.0 | 0.00 | 0.00 | 0.48 | 95 | 1011.1 |
| 20260509123701 | 19 | 105 | 3.2 | 6.4 | 0.00 | 0.00 | 0.48 | 95 | 1011.1 |
| 20260509123202 | 19 | 133 | 3.2 | 4.8 | 0.03 | 0.00 | 0.48 | 95 | 1011.1 |
| 20260509122702 | 19 | 105 | 3.2 | 6.4 | 0.03 | 0.00 | 0.48 | 95 | 1011.1 |
| 20260509122202 | 19 | 139 | 8.0 | 14.5 | 0.05 | 0.00 | 0.48 | 95 | 1011.1 |
| 20260509121702 | 19 | 138 | 6.4 | 11.3 | 0.05 | 0.00 | 0.48 | 95 | 1011.2 |
| 20260509121201 | 19 | 137 | 6.4 | 9.7 | 0.05 | 0.00 | 0.48 | 95 | 1011.2 |
| 20260509120703 | 19 | 75 | 4.8 | 6.4 | 0.08 | 0.00 | 0.48 | 95 | 1011.2 |
| 20260509120200 | 19 | 85 | 3.2 | 4.8 | 0.10 | 0.00 | 0.48 | 95 | 1011.1 |
| 20260509115701 | 19 | 115 | 4.8 | 4.8 | 0.10 | 0.00 | 0.48 | 95 | 1011.1 |
| 20260509115202 | 19 | 112 | 4.8 | 6.4 | 0.10 | 0.00 | 0.48 | 95 | 1011.0 |
| 20260509114702 | 19 | 86 | 3.2 | 4.8 | 0.10 | 0.00 | 0.48 | 95 | 1011.0 |
| 20260509114202 | 19 | 117 | 4.8 | 4.8 | 0.08 | 0.00 | 0.48 | 95 | 1011.1 |
| 20260509113702 | 19 | 113 | 3.2 | 4.8 | 0.05 | 0.00 | 0.48 | 95 | 1011.1 |
| 20260509113200 | 19 | 139 | 4.8 | 6.4 | 0.05 | 0.00 | 0.46 | 95 | 1011.2 |
| 20260509112701 | 19 | 109 | 4.8 | 6.4 | 0.05 | 0.00 | 0.46 | 95 | 1011.1 |
| 20260509112207 | 19 | 117 | 4.8 | 6.4 | 0.05 | 0.00 | 0.46 | 95 | 1011.1 |
| 20260509111701 | 19 | 148 | 6.4 | 11.3 | 0.05 | 0.00 | 0.43 | 95 | 1011.2 |
| 20260509111203 | 19 | 57 | 3.2 | 4.8 | 0.05 | 0.00 | 0.43 | 95 | 1011.1 |
| 20260509110702 | 19 | 126 | 4.8 | 6.4 | 0.05 | 0.00 | 0.43 | 95 | 1011.1 |
| 20260509110202 | 19 | 102 | 3.2 | 4.8 | 0.00 | 0.00 | 0.43 | 95 | 1011.2 |
| 20260509105702 | 19 | 345 | 3.2 | 4.8 | 0.00 | 0.00 | 0.43 | 95 | 1011.2 |
| 20260509105200 | 19 | 23 | 4.8 | 6.4 | 0.00 | 0.00 | 0.38 | 95 | 1011.2 |
| 20260509104701 | 19 | 117 | 3.2 | 4.8 | 0.00 | 0.00 | 0.38 | 95 | 1011.0 |
| 20260509104201 | 19 | 133 | 3.2 | 4.8 | 0.00 | 0.00 | 0.38 | 95 | 1011.0 |
| 20260509103706 | 19 | 131 | 6.4 | 8.0 | 0.00 | 0.00 | 0.38 | 95 | 1010.9 |
| 20260509103201 | 19 | 102 | 3.2 | 4.8 | 0.00 | 0.00 | 0.38 | 95 | 1010.8 |
| 20260509102702 | 20 | 113 | 3.2 | 6.4 | 0.00 | 0.00 | 0.38 | 95 | 1010.8 |
| 20260509102200 | 20 | 106 | 8.0 | 11.3 | 0.00 | 0.00 | 0.84 | 95 | 1010.7 |
| 20260509101704 | 20 | 67 | 8.0 | 11.3 | 0.00 | 0.00 | 0.84 | 95 | 1010.8 |
| 20260509101202 | 20 | 105 | 6.4 | 6.4 | 0.00 | 0.00 | 0.84 | 95 | 1010.8 |
| 20260509100703 | 20 | 74 | 4.8 | 6.4 | 0.84 | 0.00 | 0.84 | 95 | 1010.7 |
| 20260509100202 | 20 | 87 | 3.2 | 4.8 | 0.84 | 0.00 | 0.84 | 95 | 1010.6 |
| 20260509095702 | 20 | 95 | 3.2 | 6.4 | 0.84 | 0.00 | 0.84 | 95 | 1010.5 |
| 20260509095200 | 20 | 56 | 3.2 | 4.8 | 0.84 | 0.00 | 0.84 | 95 | 1010.4 |
| 20260509094702 | 20 | 71 | 3.2 | 4.8 | 0.84 | 0.00 | 0.84 | 94 | 1010.2 |
| 20260509094200 | 20 | 112 | 4.8 | 4.8 | 0.84 | 0.00 | 0.84 | 94 | 1010.1 |
| 20260509093704 | 20 | 141 | 4.8 | 6.4 | 0.84 | 0.00 | 0.84 | 94 | 1010.0 |
| 20260509093200 | 20 | 135 | 4.8 | 6.4 | 0.84 | 0.00 | 0.84 | 94 | 1009.9 |
| 20260509092701 | 20 | 125 | 3.2 | 9.7 | 0.08 | 0.00 | 0.84 | 94 | 1010.1 |
| 20260509092200 | 20 | 114 | 4.8 | 8.0 | 0.08 | 0.00 | 0.84 | 94 | 1010.2 |
| 20260509091700 | 20 | 87 | 9.7 | 11.3 | 0.00 | 0.00 | 0.08 | 94 | 1010.4 |
| 20260509091200 | 20 | 160 | 4.8 | 6.4 | 0.00 | 0.00 | 0.08 | 94 | 1010.6 |
| 20260509090701 | 20 | 137 | 3.2 | 4.8 | 0.00 | 0.00 | 0.08 | 94 | 1010.7 |
| 20260509090203 | 20 | 64 | 6.4 | 9.7 | 0.00 | 0.00 | 0.08 | 94 | 1010.7 |
| 20260509085700 | 20 | 77 | 3.2 | 4.8 | 0.00 | 0.00 | 0.00 | 94 | 1010.7 |
| 20260509085200 | 20 | 74 | 4.8 | 4.8 | 0.00 | 0.00 | 0.00 | 94 | 1010.6 |
| 20260509084700 | 20 | 44 | 3.2 | 3.2 | 0.00 | 0.00 | 0.00 | 94 | 1010.6 |
| 20260509084201 | 20 | 356 | 3.2 | 3.2 | 0.00 | 0.00 | 0.00 | 94 | 1010.7 |
| 20260509083701 | 20 | 99 | 3.2 | 4.8 | 0.00 | 0.00 | 0.00 | 94 | 1010.7 |
| 20260509083201 | 20 | 95 | 3.2 | 3.2 | 0.00 | 0.00 | 0.00 | 94 | 1010.8 |
| 20260509082701 | 21 | 100 | 3.2 | 3.2 | 0.00 | 0.00 | 0.00 | 94 | 1010.8 |
| 20260509082200 | 21 | 126 | 3.2 | 3.2 | 0.00 | 0.00 | 0.00 | 93 | 1010.9 |
| 20260509081701 | 21 | 111 | 4.8 | 4.8 | 0.00 | 0.00 | 0.00 | 93 | 1010.9 |
| 20260509081203 | 21 | 97 | 3.2 | 3.2 | 0.00 | 0.00 | 0.00 | 93 | 1011.0 |
| 20260509080701 | 21 | 105 | 1.6 | 3.2 | 0.00 | 0.00 | 0.00 | 93 | 1011.2 |
| 20260509080202 | 21 | 84 | 3.2 | 3.2 | 0.00 | 0.00 | 0.00 | 93 | 1011.1 |
| 20260509075701 | 21 | 72 | 3.2 | 3.2 | 0.00 | 0.00 | 0.00 | 93 | 1011.0 |
| 20260509075200 | 21 | 98 | 3.2 | 3.2 | 0.00 | 0.00 | 0.00 | 93 | 1011.0 |
| 20260509074701 | 21 | 151 | 3.2 | 3.2 | 0.00 | 0.00 | 0.00 | 93 | 1011.0 |
| 20260509074202 | 21 | 144 | 3.2 | 3.2 | 0.00 | 0.00 | 0.00 | 92 | 1010.9 |
| 20260509073701 | 21 | 117 | 1.6 | 1.6 | 0.00 | 0.00 | 0.00 | 92 | 1011.0 |
| 20260509073200 | 21 | 91 | 0.0 | 1.6 | 0.00 | 0.00 | 0.00 | 92 | 1010.9 |
| 20260509072703 | 21 | 101 | 1.6 | 3.2 | 0.00 | 0.00 | 0.00 | 92 | 1010.9 |
| 20260509072201 | 21 | 97 | 3.2 | 3.2 | 0.00 | 0.00 | 0.00 | 92 | 1010.9 |
| 20260509071701 | 21 | 129 | 1.6 | 3.2 | 0.00 | 0.00 | 0.00 | 92 | 1011.0 |
| 20260509071202 | 21 | 139 | 1.6 | 3.2 | 0.00 | 0.00 | 0.00 | 92 | 1011.1 |
| 20260509070701 | 21 | 115 | 1.6 | 1.6 | 0.00 | 0.00 | 0.00 | 92 | 1011.2 |
| 20260509070203 | 21 | 139 | 0.0 | 0.0 | 0.00 | 0.00 | 0.00 | 92 | 1011.4 |
| 20260509065701 | 21 | 97 | 1.6 | 3.2 | 0.00 | 0.00 | 0.00 | 92 | 1011.4 |
| 20260509065200 | 21 | 106 | 1.6 | 1.6 | 0.00 | 0.00 | 0.00 | 92 | 1011.4 |
| 20260509064700 | 21 | 106 | 3.2 | 3.2 | 0.00 | 0.00 | 0.00 | 92 | 1011.4 |
| 20260509064201 | 21 | 94 | 1.6 | 3.2 | 0.00 | 0.00 | 0.00 | 92 | 1011.5 |
| 20260509063700 | 21 | 97 | 1.6 | 3.2 | 0.00 | 0.00 | 0.00 | 92 | 1011.5 |
| 20260509063201 | 21 | 95 | 1.6 | 1.6 | 0.00 | 0.00 | 0.00 | 92 | 1011.5 |
| 20260509062702 | 21 | 106 | 0.0 | 1.6 | 0.00 | 0.00 | 0.00 | 92 | 1011.6 |
| 20260509062200 | 21 | 105 | 0.0 | 1.6 | 0.00 | 0.00 | 0.00 | 92 | 1011.5 |
| 20260509061701 | 21 | 96 | 1.6 | 1.6 | 0.00 | 0.00 | 0.00 | 92 | 1011.6 |
| 20260509061200 | 21 | 128 | 0.0 | 0.0 | 0.00 | 0.00 | 0.00 | 92 | 1011.6 |
| 20260509060701 | 21 | 112 | 1.6 | 1.6 | 0.00 | 0.00 | 0.00 | 92 | 1011.7 |
| 20260509060202 | 21 | 134 | 0.0 | 0.0 | 0.00 | 0.00 | 0.00 | 92 | 1011.8 |
| 20260509055700 | 21 | 139 | 0.0 | 1.6 | 0.00 | 0.00 | 0.00 | 91 | 1011.8 |
| 20260509055200 | 21 | 118 | 1.6 | 3.2 | 0.00 | 0.00 | 0.00 | 91 | 1011.7 |
| 20260509054700 | 21 | 153 | 1.6 | 3.2 | 0.00 | 0.00 | 0.00 | 91 | 1011.8 |
| 20260509054201 | 21 | 160 | 1.6 | 3.2 | 0.00 | 0.00 | 0.00 | 91 | 1011.9 |
| 20260509053700 | 21 | 175 | 1.6 | 3.2 | 0.00 | 0.00 | 0.00 | 91 | 1012.0 |
| 20260509053201 | 21 | 155 | 0.0 | 1.6 | 0.00 | 0.00 | 0.00 | 91 | 1011.9 |
| 20260509052701 | 21 | 139 | 1.6 | 3.2 | 0.00 | 0.00 | 0.00 | 91 | 1011.8 |
| 20260509052200 | 21 | 179 | 1.6 | 3.2 | 0.00 | 0.00 | 0.00 | 91 | 1011.8 |
| 20260509051701 | 21 | 145 | 0.0 | 0.0 | 0.00 | 0.00 | 0.00 | 91 | 1011.8 |
| 20260509051202 | 21 | 203 | 1.6 | 3.2 | 0.00 | 0.00 | 0.00 | 91 | 1011.6 |
| 20260509050700 | 21 | 142 | 1.6 | 1.6 | 0.00 | 0.00 | 0.00 | 91 | 1011.5 |
| 20260509050203 | 21 | 106 | 1.6 | 1.6 | 0.00 | 0.00 | 0.00 | 91 | 1011.5 |
| 20260509045702 | 21 | 9 | 0.0 | 1.6 | 0.00 | 0.00 | 0.03 | 91 | 1011.4 |
| 20260509045200 | 21 | 153 | 3.2 | 3.2 | 0.00 | 0.00 | 0.03 | 91 | 1011.2 |
| 20260509044700 | 21 | 178 | 3.2 | 3.2 | 0.00 | 0.00 | 0.03 | 91 | 1011.3 |
| 20260509044202 | 21 | 69 | 0.0 | 1.6 | 0.00 | 0.00 | 0.03 | 91 | 1011.3 |
| 20260509043702 | 21 | 83 | 3.2 | 3.2 | 0.00 | 0.00 | 0.03 | 91 | 1011.2 |
| 20260509043201 | 21 | 73 | 3.2 | 3.2 | 0.00 | 0.00 | 0.03 | 91 | 1011.3 |
| 20260509042702 | 21 | 104 | 3.2 | 3.2 | 0.00 | 0.00 | 0.03 | 91 | 1011.3 |
| 20260509042201 | 21 | 112 | 0.0 | 1.6 | 0.00 | 0.00 | 0.03 | 90 | 1011.2 |
| 20260509041702 | 21 | 87 | 1.6 | 3.2 | 0.00 | 0.00 | 0.03 | 90 | 1011.1 |
| 20260509041200 | 21 | 0 | 0.0 | 0.0 | 0.00 | 0.00 | 0.03 | 90 | 1011.2 |
| 20260509040701 | 21 | 123 | 4.8 | 6.4 | 0.00 | 0.00 | 0.03 | 90 | 1011.2 |
| 20260509040202 | 21 | 132 | 4.8 | 4.8 | 0.00 | 0.00 | 0.03 | 90 | 1011.2 |
| 20260509035700 | 21 | 122 | 4.8 | 4.8 | 0.00 | 0.00 | 0.03 | 90 | 1011.1 |
| 20260509035200 | 21 | 139 | 3.2 | 3.2 | 0.00 | 0.00 | 0.03 | 90 | 1011.2 |
| 20260509034701 | 21 | 158 | 6.4 | 6.4 | 0.00 | 0.00 | 0.03 | 90 | 1011.1 |
| 20260509034202 | 21 | 166 | 6.4 | 6.4 | 0.00 | 0.00 | 0.03 | 90 | 1011.1 |
| 20260509033701 | 21 | 154 | 3.2 | 3.2 | 0.00 | 0.00 | 0.03 | 90 | 1011.2 |
| 20260509033200 | 21 | 139 | 1.6 | 3.2 | 0.00 | 0.00 | 0.03 | 90 | 1011.1 |
| 20260509032701 | 21 | 147 | 1.6 | 3.2 | 0.00 | 0.00 | 0.03 | 90 | 1011.1 |
| 20260509032200 | 21 | 257 | 4.8 | 6.4 | 0.00 | 0.00 | 0.03 | 90 | 1011.1 |
| 20260509031700 | 21 | 95 | 1.6 | 3.2 | 0.00 | 0.00 | 0.03 | 90 | 1011.0 |
| 20260509031201 | 21 | 165 | 8.0 | 9.7 | 0.00 | 0.00 | 0.03 | 90 | 1011.0 |
| 20260509030701 | 21 | 177 | 1.6 | 6.4 | 0.00 | 0.00 | 0.03 | 89 | 1010.9 |
| 20260509030202 | 21 | 165 | 8.0 | 14.5 | 0.00 | 0.00 | 0.03 | 89 | 1010.8 |
| 20260509025702 | 21 | 153 | 6.4 | 11.3 | 0.00 | 0.00 | 0.03 | 89 | 1010.6 |
| 20260509025203 | 21 | 147 | 6.4 | 12.9 | 0.00 | 0.00 | 0.03 | 89 | 1010.6 |
| 20260509024702 | 21 | 138 | 6.4 | 9.7 | 0.00 | 0.00 | 0.03 | 89 | 1010.6 |
| 20260509024201 | 21 | 145 | 6.4 | 9.7 | 0.00 | 0.00 | 0.03 | 89 | 1010.6 |
| 20260509023700 | 21 | 168 | 9.7 | 12.9 | 0.00 | 0.00 | 0.03 | 89 | 1010.5 |
| 20260509023202 | 21 | 163 | 9.7 | 11.3 | 0.00 | 0.00 | 0.03 | 89 | 1010.3 |
| 20260509022701 | 21 | 178 | 11.3 | 14.5 | 0.00 | 0.00 | 0.03 | 89 | 1010.3 |
| 20260509022202 | 21 | 154 | 8.0 | 9.7 | 0.00 | 0.00 | 0.03 | 89 | 1010.3 |
| 20260509021700 | 21 | 169 | 8.0 | 11.3 | 0.00 | 0.00 | 0.03 | 89 | 1010.2 |
| 20260509021203 | 21 | 153 | 8.0 | 9.7 | 0.00 | 0.00 | 0.03 | 89 | 1010.2 |
| 20260509020701 | 21 | 166 | 8.0 | 9.7 | 0.00 | 0.00 | 0.03 | 89 | 1010.2 |
| 20260509020202 | 21 | 165 | 11.3 | 14.5 | 0.00 | 0.00 | 0.03 | 89 | 1010.1 |
| 20260509015701 | 21 | 161 | 8.0 | 11.3 | 0.00 | 0.00 | 0.03 | 89 | 1010.0 |
| 20260509015201 | 21 | 170 | 11.3 | 17.7 | 0.00 | 0.00 | 0.03 | 89 | 1009.9 |
| 20260509014701 | 21 | 152 | 6.4 | 8.0 | 0.00 | 0.00 | 0.03 | 89 | 1009.9 |
| 20260509014200 | 21 | 160 | 8.0 | 9.7 | 0.00 | 0.00 | 0.03 | 89 | 1009.8 |
| 20260509013700 | 21 | 155 | 9.7 | 11.3 | 0.00 | 0.00 | 0.03 | 89 | 1009.7 |
| 20260509013200 | 21 | 157 | 8.0 | 9.7 | 0.00 | 0.00 | 0.03 | 90 | 1009.7 |
| 20260509012701 | 21 | 111 | 6.4 | 8.0 | 0.00 | 0.00 | 0.03 | 90 | 1009.7 |
| 20260509012201 | 21 | 111 | 4.8 | 8.0 | 0.00 | 0.00 | 0.03 | 90 | 1009.9 |
| 20260509011700 | 21 | 117 | 4.8 | 9.7 | 0.00 | 0.00 | 0.03 | 90 | 1009.9 |
| 20260509011203 | 21 | 137 | 3.2 | 6.4 | 0.00 | 0.00 | 0.03 | 90 | 1009.9 |
| 20260509010700 | 21 | 148 | 6.4 | 8.0 | 0.00 | 0.00 | 0.03 | 90 | 1009.9 |
| 20260509010200 | 21 | 147 | 6.4 | 11.3 | 0.00 | 0.00 | 0.03 | 89 | 1009.9 |
| 20260509005700 | 21 | 139 | 6.4 | 12.9 | 0.00 | 0.00 | 0.03 | 89 | 1009.8 |
| 20260509005201 | 21 | 158 | 9.7 | 12.9 | 0.00 | 0.00 | 0.03 | 89 | 1009.7 |
| 20260509004701 | 21 | 126 | 4.8 | 6.4 | 0.00 | 0.00 | 0.03 | 88 | 1009.9 |
| 20260509004200 | 21 | 110 | 9.7 | 12.9 | 0.00 | 0.00 | 0.03 | 88 | 1010.1 |
| 20260509003701 | 21 | 107 | 8.0 | 9.7 | 0.00 | 0.00 | 0.03 | 87 | 1010.4 |
| 20260509003200 | 21 | 112 | 6.4 | 14.5 | 0.00 | 0.00 | 0.03 | 87 | 1010.3 |
| 20260509002700 | 21 | 145 | 6.4 | 9.7 | 0.00 | 0.00 | 0.03 | 87 | 1010.3 |
| 20260509002201 | 22 | 137 | 3.2 | 8.0 | 0.00 | 0.00 | 0.03 | 87 | 1010.5 |
| 20260509001700 | 22 | 155 | 6.4 | 9.7 | 0.00 | 0.00 | 0.03 | 86 | 1010.7 |
| 20260509001201 | 22 | 108 | 6.4 | 9.7 | 0.00 | 0.00 | 0.03 | 86 | 1010.8 |
| 20260509000701 | 22 | 106 | 8.0 | 9.7 | 0.00 | 0.00 | 0.03 | 85 | 1010.8 |
| 20260509000201 | 22 | 104 | 6.4 | 8.0 | 0.00 | 0.00 | 0.03 | 85 | 1010.8 |
| 20260508235701 | 22 | 109 | 8.0 | 11.3 | 0.00 | 0.00 | 0.03 | 85 | 1010.9 |
| 20260508235201 | 22 | 91 | 8.0 | 11.3 | 0.00 | 0.00 | 0.03 | 85 | 1010.9 |